Location: Gleizolles
(44.4833°N, 6.7667°E)
Time: 22:08:09
(UTC+00:00)

A-11 Canister half - Pass Details

Date: 04 July 2024
Orbit: 1524 x 1684 km, 47.3° (Epoch: 18 July)

Event Time Altitude Azimuth Distance (km) Brightness Sun altitude
Rises 17:38:17 0° 284° (WNW) 4,679 13.4 15.6°
Reaches altitude 10° 17:44:26 10° 254° (WSW) 3,686 12.1 14.6°
Maximum altitude 17:46:52 11° 238° (WSW) 3,586 11.6 14.2°
Drops below altitude 10° 17:49:19 10° 222° (SW) 3,688 11.4 13.7°
Sets 17:55:32 0° 192° (SSW) 4,686 11.5 12.7°
